Погода во Владимирском Тупике

Россия / Смоленская область     55°41′34″N   33°18′19″E
темп.,
°C
ветер,
м/с
пор.,
м/с
влажн.,
%
обл.,
%
осадки,
мм/ч
давл.,
гПа
погр.,
м
21 апреля, ср
ср2100:00+3св2692100 0.1 1012646
03:00+2ссв2494100 0.1 1010306
06:00+2сз3697100 0.1 1007423
09:00+3зсз3796100 0.3 1006501
12:00+5з4674100 0.1 10061104
15:00+7з367495 0.3 10071004
18:00+8зюз257091 0.1 1007794
21:00+4ююз289059 0.2 1009177
22 апреля, чт
чт2200:00+3ю38945 0.0 1009171
03:00+3ю3109439 0.0 1010237
06:00+3ю3119658 0.0 1010282
09:00+7ююз478438 0.0 1011446
12:00+12ююз46595 0.4 10111305
15:00+13ю465677 1.3 10101601
18:00+12ю48736 1.6 10091061
21:00+8ю4118653 2.3 1010329
23 апреля, пт
пт2300:00+7ю31191100 0.0 1009287
03:00+7юз4996100 2.9 1009712
06:00+6юз3895100 0.8 1010395
09:00+3юз3696100 2.3 1012497
12:00+7юз4765100 0.3 10131334
15:00+9юз5754100 0.4 10121718
18:00+7ююз3565100 0.0 10121109
21:00+5зюз2280100 0.3 101230
24 апреля, сб
сб2400:00+4зсз1283100 0.0 101175
03:00+3зсз2483100 0.0 1010132
06:00+2зсз2584100 0.0 1009224
09:00+4зсз3471100 0.0 1009614
12:00+6з3449100 0.1 10081915
15:00+7з4548100 0.4 10071774
18:00+6з355694 0.8 10071407
21:00+2зюз3882100 1.2 1008255
25 апреля, вс
вс2500:00+1з4109061 0.1 1008453
03:00+1з499492 0.1 1007578
06:000зюз4896100 0.2 1007667
09:00+1зюз5878100 0.4 1007868
12:00+3юз587699 0.3 10071228
15:00+5зюз586399 1.0 10061608
18:00+4зюз597699 0.9 10071214
21:00+2юз4108695 1.2 1008591